Preview of NWS' New Version of Forecast
This preview is not operational and should not be used for support decisions.
Latest weather observations around

Seattle, Seattle-Tacoma International Airport (KSEA)

Using English Units (Switch to International System of Units)
Date/ Time (PDT) Wind (mph) Vis. (mi) Weather Sky Cond. Temp (°F) Rel. Humidity Wind Chill (°F) Heat Index (°F) Pressure Precip. (in)
Air Dwpt 6 hour Altimeter (inHg) Sea level (inHg) 1 hr 3 hr 6 hr
Max Min
Sep 23 02:20 S 5 2 Light Drizzle and Fog/Mist BKN003 OVC011 57 55     93%     30.06   0    
Sep 23 02:12 S 6 2 Light Drizzle and Fog/Mist BKN005 OVC012 57 54     89%     30.06   0    
Sep 23 01:53 S 8 3 Light Rain and Fog/Mist OVC006 57 54     89%     30.05 30.07 0 0  
Sep 23 01:40 S 7 3 Light Rain and Fog/Mist FEW005 BKN008 OVC013 57 55     93%     30.05   0    
Sep 23 00:53 S 7 7 Light Rain BKN011 OVC018 58 54     87%     30.04 30.05 0    
Sep 23 00:28 S 5 6 Light Rain and Fog/Mist BKN013 OVC023 58 54     87%     30.03   0    
Sep 22 23:53 S 9 6 Light Rain and Fog/Mist BKN015 BKN021 OVC028 58 54     87%     30.02 30.04 0    
Sep 22 23:41 S 9 4 Light Rain and Fog/Mist BKN015 OVC023 58 54     87%     30.02   0    
Sep 22 22:53 S 9 10 Cloudy BKN015 OVC021 59 53     81%     30 30.01      
Sep 22 21:53 SW 8 10 Cloudy OVC020 60 53     78%     29.98 29.99      
Sep 22 20:53 SW 9 10 Mostly Cloudy BKN021 60 53     78%     29.96 29.97      
Sep 22 20:40 SW 9 10 Mostly Cloudy BKN021 60 53     78%     29.95        
Sep 22 19:53 SSW 10 10 Partly Cloudy SCT049 60 54     80%     29.92 29.93      
Sep 22 18:53 SSW 10 10 Partly Cloudy FEW021 SCT026 SCT080 62 56     80%     29.89 29.91      
Sep 22 17:53 S 8 10 Clear   64 60     87%     29.88 29.89      
Sep 22 17:18 S 8 10 Cloudy FEW011 BKN022 OVC065 64 60     87%     29.87        
Sep 22 16:53 S 9 10 Cloudy SCT011 BKN030 OVC065 64 60     87%     29.87 29.88     0
Sep 22 16:46 S 8 10 Cloudy SCT008 BKN030 OVC065 64 60     87%     29.87        
Sep 22 16:06 SSE 10 10 Mostly Cloudy SCT022 BKN060 BKN100 63 59     87%     29.86        
Sep 22 15:53 SSE 8 10 Cloudy BKN015 BKN026 OVC085 63 60     90%     29.86 29.88 0    
Sep 22 14:53 S 7 4 Light Rain and Fog/Mist SCT006 BKN015 OVC031 62 59     90%     29.87 29.88 0    
Sep 22 14:28 S 7 3 Light Rain and Fog/Mist SCT006 BKN025 OVC032 62 59     90%     29.87   0    
Sep 22 14:06 S 7 4 Light Rain and Fog/Mist SCT005 OVC033 62 59     90%     29.87   0    
Sep 22 13:53 S 8 2 Light Rain and Fog/Mist SCT005 BKN021 OVC038 62 59     90%     29.87 29.88 0 0  
Sep 22 12:53 S 6 7 Light Rain FEW010 BKN025 OVC031 62 58     86%     29.87 29.88 0    
Sep 22 11:53 S 7 6 Light Rain and Fog/Mist SCT034 SCT045 OVC060 62 58     86%     29.87 29.88 0    
Sep 22 10:53 SSE 7 10 Cloudy SCT024 BKN035 OVC049 61 57     87%     29.87 29.88 0   0
Sep 22 09:53 SSE 11 7 Light Rain BKN032 BKN065 OVC080 61 58     90%     29.87 29.88 0    
Sep 22 08:53 SE 9 7 Light Rain BKN024 BKN037 OVC050 60 56     86%     29.87 29.88 0    
Sep 22 07:53 S 5 10 Cloudy SCT027 SCT035 OVC046 60 56     86%     29.87 29.88 0 0  
Sep 22 07:22 Calm 10 Light Rain BKN030 BKN050 OVC095 60 55     83%     29.87   0    
Sep 22 07:10 Calm 10 Light Rain BKN029 BKN050 OVC060 60 55     83%     29.87   0    
Sep 22 06:53 SSE 3 10 Light Rain SCT029 OVC050 60 55     83%     29.87 29.88 0    
Sep 22 05:53 SSE 5 10 Light Rain SCT049 BKN055 OVC100 60 56     86%     29.88 29.89 0    
Sep 22 04:53 SSW 5 10 Cloudy FEW031 BKN050 OVC095 61 56     83%     29.89 29.9      
Sep 22 03:53 S 5 10 Cloudy FEW032 SCT055 OVC120 61 55     81%     29.9 29.91      
Sep 22 02:53 S 5 10 Cloudy BKN032 OVC130 61 55     81%     29.92 29.93      
Sep 22 01:53 S 6 10 Cloudy FEW028 OVC036 62 56     80%     29.94 29.95      
Sep 22 00:53 S 3 10 Cloudy FEW027 OVC037 62 55     78%     29.95 29.96      
Sep 21 23:53 S 3 10 Mostly Cloudy FEW027 BKN038 62 55     78%     29.97 29.99      
Sep 21 22:53 SW 3 10 Cloudy SCT029 OVC038 64 55     73%     29.98 30      
Sep 21 21:53 S 5 10 Cloudy OVC039 65 55     70%     29.99 30.01      
Sep 21 20:53 7 10 Cloudy OVC040 65 54     68%     30.01 30.02      
Sep 21 19:53 S 6 10 Cloudy OVC040 64 54     70%     30.02 30.04      
Sep 21 18:53 SSW 5 10 Cloudy OVC042 64 54     70%     30.03 30.04      
Sep 21 17:53 WSW 5 10 Mostly Cloudy SCT034 BKN043 65 54     68%     30.04 30.06      
Sep 21 16:53 SSW 7 10 Cloudy OVC032 66 54     65%     30.05 30.07      
Sep 21 15:53 SSW 7 10 Cloudy OVC031 67 53     61%     30.08 30.09      
Sep 21 15:40 SSW 6 10 Cloudy OVC030 66 53     63%     30.08        
Sep 21 14:53 WSW 8 10 Cloudy OVC028 65 53     65%     30.09 30.11      
Sep 21 13:53 WSW 8 10 Mostly Cloudy BKN025 67 53     61%     30.11 30.12      
Sep 21 12:59 S 7 10 Partly Cloudy SCT020 65 53     65%     30.12        
Sep 21 12:53 S 7 10 Mostly Cloudy BKN021 65 53     65%     30.12 30.14      
Sep 21 11:53 SW 7 10 Cloudy OVC020 63 53     70%     30.13 30.15      
Sep 21 11:09 S 7 10 Mostly Cloudy FEW013 BKN019 62 53     72%     30.14        
Sep 21 10:53 SSW 8 10 Mostly Cloudy BKN013 BKN019 61 53     75%     30.14 30.16      
Sep 21 09:53 S 7 10 Mostly Cloudy BKN012 BKN019 60 54     80%     30.15 30.16      
Sep 21 08:53 SE 6 10 Mostly Cloudy BKN013 BKN030 BKN200 60 54     80%     30.16 30.17      
Sep 21 08:37 6 10 Partly Cloudy FEW008 SCT013 60 54     80%     30.16        
Sep 21 07:53 Calm 10 Mostly Cloudy SCT008 BKN013 58 54     87%     30.15 30.17      
Sep 21 07:24 WSW 5 10 Cloudy SCT008 OVC013 58 54     87%     30.16        
Sep 21 06:53 SW 3 10 Cloudy BKN010 OVC016 58 54     87%     30.15 30.16      
Sep 21 06:47 SSW 3 10 Cloudy BKN010 OVC016 57 54     88%     30.15        
Sep 21 06:06 S 5 10 Cloudy BKN008 OVC014 58 54     87%     30.14        
Sep 21 05:53 S 5 10 Cloudy BKN010 OVC014 58 55     90%     30.14 30.16      
Sep 21 04:53 SSW 5 10 Mostly Cloudy BKN010 BKN045 58 54     87%     30.15 30.17      
Sep 21 04:33 SSW 5 10 Cloudy OVC010 58 54     87%     30.16        
Sep 21 03:53 S 5 10 Cloudy OVC009 58 54     87%     30.16 30.17      
Sep 21 02:53 SSE 5 10 Mostly Cloudy BKN009 BKN045 58 54     87%     30.16 30.17      
Sep 21 02:00 SSW 5 10 Cloudy BKN008 OVC042 59 55     87%     30.16        
Sep 21 01:53 S 5 10 Cloudy SCT008 OVC040 59 55     87%     30.16 30.18      
Sep 21 01:45 S 6 10 Cloudy FEW008 BKN038 OVC045 59 55     87%     30.16        
Sep 21 00:53 SSW 5 10 Mostly Cloudy FEW027 BKN035 59 54     83%     30.16 30.17      
Sep 20 23:53 SE 6 10 Partly Cloudy SCT028 60 54     80%     30.14 30.16      
Sep 20 22:53 WSW 5 10 Mostly Cloudy BKN030 60 54     80%     30.14 30.15      
Sep 20 21:53 ESE 7 10 Partly Cloudy SCT060 63 54     72%     30.13 30.14      
Sep 20 20:53 ESE 7 10 Partly Cloudy FEW030 SCT055 SCT250 66 54     65%     30.13 30.14      
Sep 20 19:53 Calm 10 Partly Cloudy FEW030 SCT060 SCT250 64 53     67%     30.12 30.14      
Sep 20 18:53 W 3 10 Mostly Cloudy FEW030 SCT060 BKN250 66 52     61%     30.12 30.13      
Sep 20 17:53 W 5 10 Mostly Cloudy FEW030 BKN055 BKN200 67 53     61%     30.12 30.14      
Sep 20 16:53 SW 3 10 Clear   67 52     59%     30.12 30.14      
Sep 20 16:41 WSW 5 10 Mostly Cloudy BKN030 BKN060 67 52     59%     30.12        
Sep 20 15:53 SSW 6 10 Mostly Cloudy BKN029 BKN060 67 52     59%     30.13 30.14      
Sep 20 15:39 5 10 Clear   67 51     57%     30.12        
Sep 20 14:53 5 10 Clear   67 53     61%     30.12 30.13      
Sep 20 13:53 S 6 10 Mostly Cloudy SCT020 BKN041 BKN060 67 54     63%     30.12 30.13      
Sep 20 12:53 SSW 6 10 Mostly Cloudy FEW020 BKN030 BKN034 BKN250 63 54     72%     30.12 30.14      
Sep 20 11:53 SW 6 10 Mostly Cloudy SCT022 BKN030 BKN250 62 54     75%     30.11 30.13      
Sep 20 11:34 5 10 Mostly Cloudy FEW016 SCT029 BKN037 BKN250 63 55     75%     30.11        
Sep 20 10:53 SW 3 10 Mostly Cloudy SCT008 BKN016 BKN024 61 55     81%     30.11 30.13      
Sep 20 09:53 SW 5 10 Cloudy BKN008 OVC035 60 55     83%     30.1 30.12      
Sep 20 08:53 S 5 10 Cloudy BKN008 OVC035 59 55     87%     30.1 30.11      
Sep 20 07:53 SSW 6 10 Mostly Cloudy BKN006 BKN035 59 55     87%     30.08 30.1      
Sep 20 07:33 SSE 6 10 Cloudy BKN006 OVC035 58 55     90%     30.08        
Sep 20 07:07 SE 5 10 Cloudy BKN004 OVC037 58 55     90%     30.08        
Sep 20 06:53 SE 6 10 Cloudy BKN006 OVC034 58 55     90%     30.08 30.09      
Sep 20 05:53 ESE 5 10 Cloudy BKN006 BKN022 OVC034 59 55     87%     30.07 30.08      
Sep 20 04:53 SE 5 10 Cloudy BKN009 BKN025 OVC048 59 55     87%     30.07 30.09     0
Sep 20 03:53 SSE 6 10 Cloudy FEW004 BKN009 OVC045 59 56     90%     30.06 30.07      
Sep 20 02:53 S 6 10 Cloudy BKN006 BKN034 OVC041 59 55     87%     30.07 30.08 0    
Sep 20 02:29 Calm 7 Light Rain BKN006 OVC010 59 55     87%     30.07   0    
Sep 20 02:18 SSE 3 8 Cloudy BKN010 BKN013 OVC019 59 55     87%     30.07        
Sep 20 01:53 Calm 10 Cloudy OVC008 59 55     87%     30.07 30.09   0  
Sep 20 00:53 SW 5 10 Cloudy BKN007 OVC036 59 56     90%     30.06 30.08 0    
Sep 20 00:49 SW 6 10 Cloudy BKN007 OVC036 59 55     88%     30.06   0    
Sep 20 00:41 S 6 10 Cloudy SCT007 OVC036 59 56     90%     30.06   0    
Sep 19 23:53 SSW 3 7 Light Rain SCT007 BKN020 OVC028 60 56     86%     30.07 30.08 0    
Sep 19 23:49 SSW 3 7 Light Rain FEW007 BKN020 OVC028 61 55     82%     30.07   0    
May 15 00:53 WSW 6 10 Mostly Clear FEW250 63 51     65%     29.89 29.9      
May 14 14:53 NW 8 10 Mostly Clear FEW050 FEW250 84 55     37%   83 29.9 29.91      
May 14 05:53 SSW 3 10 Mostly Clear FEW250 59 52     78%     29.96 29.97      
May 13 17:53 N 5 10 Mostly Clear FEW250 84 46     27%   82 29.9 29.91      
May 13 01:53 NE 7 10 Clear CLR 60 47     62%     29.97 29.98      
May 12 18:53 NNE 13 10 Mostly Clear FEW030 74 49     41%   73 29.98 29.99      
May 12 17:53 N 13 10 Mostly Clear FEW030 76 49     39%   75 29.99 30.01      
May 12 13:53 NNE 11 10 Clear   72 51     48%   71 30.07 30.08      
Jun 12 03:53 SW 7 10 Partly Cloudy SCT011 52 49     89%     30 30.02      
Jun 11 13:53 WSW 7 10 Partly Cloudy FEW040 SCT170 65 48     54%     30.02 30.04      
Jun 11 02:53 S 5 10 Mostly Cloudy SCT080 BKN180 53 49     86%     29.99 30.01      
Jun 10 15:53 WNW 10 10 Partly Cloudy SCT045 SCT200 66 41     40%     29.86 29.87      
Jun 07 10:53 W 7 10 Mostly Cloudy FEW120 BKN250 67 48     51%     29.78 29.79      
Jun 06 05:53 NNE 6 10 Partly Cloudy SCT140 SCT250 56 43     62%     30.01 30.03      
Jun 05 21:53 N 8 10 Mostly Cloudy BKN250 62 43     50%     30.06 30.07